User: anonymous   Login
Location: Clinton NY
(43.0598°N, 75.3602°W)
Time: 00:08:10
(UTC-05:00)
Language:

Iridium 42 - Orbit

View from above orbital plane
View from above orbital plane
View from above satellite
View from above satellite

Ground track
Ground track

The orbit data is extracted from the following two-line orbital elements,

1 25077U 97077A   17053.51460473  .00000128  00000-0  38336-4 0  9995
2 25077  86.3926  69.8658 0002069  87.1016 273.0416 14.34527068  5759
Epoch (UTC): 22 February 2017 12:21:01
Eccentricity: 0.0002069
inclination: 86.3926°
perigee height: 775 km
apogee height: 778 km
right ascension of ascending node: 69.8658°
argument of perigee: 87.1016°
revolutions per day: 14.34527068
mean anomaly at epoch: 273.0416°
orbit number at epoch: 575

The dashed part of the orbit path shows where the satellite is in the earth's shadow,  

DLR